Location: Nashville
(36.1660°N, 86.7840°W)
Time: 09:27:39
(UTC-05:00)

Vanguard 1 Rocket - Pass Details

Date: 28 January 2022
Orbit: 651 x 4224 km, 34.3° (Epoch: 21 May)

Event Time Altitude Azimuth Distance (km) Brightness Sun altitude
Rises 17:41:29 0° 286° (WNW) 6,860 12.9 -6.9°
Reaches altitude 10° 17:47:25 10° 278° (W) 5,201 12.5 -8.0°
Maximum altitude 17:58:23 31° 224° (SW) 2,566 10.4 -10.2°
Drops below altitude 10° 18:04:52 10° 164° (SSE) 3,014 10.1 -11.4°
Sets 18:07:21 0° 153° (SSE) 3,675 10.4 -11.9°
